BMCB-24 Weather Reports


Display with metric or nautical units.
time (UTC)temp
F
wind
direction
speed
MPH
gust
MPH
rain 1hr
in
rain 24hr
in
rain mn
in
humidity
%
barometer
mb
20260510054055 53 0 0.0 0.0 0.00 0.00 0.00 72 1013.8
20260510053055 53 0 0.0 0.0 0.00 0.00 0.00 73 1013.9
20260510052053 53 0 0.0 0.0 0.00 0.00 0.00 73 1013.9
20260510051054 53 0 0.0 0.0 0.00 0.00 0.00 74 1013.9
20260510050054 52 0 0.0 0.0 0.00 0.00 0.00 73 1014.0
20260510045056 52 0 0.0 0.0 0.00 0.00 0.00 74 1014.0
20260510044054 52 0 0.0 0.0 0.00 0.00 0.00 74 1014.1
20260510043054 52 0 0.0 0.0 0.00 0.00 0.00 73 1014.1
20260510042053 52 0 0.0 0.0 0.00 0.00 0.00 74 1014.2
20260510041056 52 0 0.0 0.0 0.00 0.00 0.00 74 1014.3
20260510040056 52 0 0.0 0.0 0.00 0.00 0.00 74 1014.4
20260510035058 52 0 0.0 0.0 0.00 0.00 0.00 74 1014.5
20260510034055 52 0 0.0 0.0 0.00 0.00 0.00 74 1014.4
20260510033057 52 0 0.0 0.0 0.00 0.00 0.00 74 1014.5
20260510032055 52 0 0.0 0.0 0.00 0.00 0.00 74 1014.6
20260510031055 52 0 0.0 0.0 0.00 0.00 0.00 74 1014.6
20260510030055 53 0 0.0 0.0 0.00 0.00 0.00 73 1014.6
20260510024055 53 0 0.0 0.0 0.00 0.00 0.00 74 1014.8
20260510023054 53 0 0.0 0.0 0.00 0.00 0.00 74 1014.8
20260510022054 53 0 0.0 0.0 0.00 0.00 0.00 74 1014.8
20260510021055 53 0 0.0 0.0 0.00 0.00 0.00 74 1014.9
20260510020054 53 0 0.0 0.0 0.00 0.00 0.00 75 1015.0
20260510014053 53 0 0.0 0.0 0.00 0.00 0.00 73 1015.1
20260510013057 53 0 0.0 0.0 0.00 0.00 0.00 73 1015.1
20260510011052 54 0 0.0 0.0 0.00 0.00 0.00 73 1015.2
20260510005053 54 0 0.0 0.0 0.00 0.00 0.00 72 1015.2
20260510004055 54 0 0.0 0.0 0.00 0.00 0.00 73 1015.3
20260510003055 54 0 0.0 0.0 0.00 0.00 0.00 73 1015.4
20260510002056 54 0 0.0 0.0 0.00 0.00 0.00 73 1015.4
20260510001055 54 0 0.0 0.0 0.00 0.00 0.00 74 1015.5
20260509234059 53 0 0.0 0.0 0.00 0.00 0.00 75 1015.7
20260509233104 53 0 0.0 0.0 0.00 0.00 0.00 75 1015.8
20260509232103 53 0 0.0 0.0 0.00 0.00 0.00 76 1015.9
20260509231101 53 0 0.0 0.0 0.00 0.00 0.00 76 1015.8
20260509230104 53 0 0.0 0.0 0.00 0.00 0.00 77 1015.9
20260509225107 53 0 0.0 0.0 0.00 0.00 0.00 78 1015.9
20260509224105 51 0 0.0 0.0 0.00 0.00 0.00 81 1016.1
20260509223101 51 0 0.0 0.0 0.00 0.00 0.00 82 1016.2
20260509221106 51 0 0.0 0.0 0.00 0.00 0.00 81 1016.2
20260509220104 52 0 0.0 0.0 0.00 0.00 0.00 80 1016.2
20260509215111 52 0 0.0 0.0 0.00 0.00 0.00 79 1016.2
20260509214111 52 0 0.0 0.0 0.00 0.00 0.00 80 1016.3
20260509212111 52 0 0.0 0.0 0.00 0.00 0.00 79 1016.3
20260509210106 52 0 0.0 0.0 0.00 0.00 0.00 79 1016.4
20260509205112 52 0 0.0 0.0 0.00 0.00 0.00 79 1016.4
20260509204111 53 0 0.0 0.0 0.00 0.00 0.00 80 1016.3
20260509203112 53 0 0.0 0.0 0.00 0.00 0.00 79 1016.4
20260509201115 53 0 0.0 0.0 0.00 0.00 0.00 78 1016.2
20260509200111 54 0 0.0 0.0 0.00 0.00 0.00 78 1016.2
20260509194110 55 0 0.0 0.0 0.00 0.00 0.00 76 1016.1
20260509193110 56 0 0.0 0.0 0.00 0.00 0.00 75 1016.0
20260509192110 57 0 0.0 0.0 0.00 0.00 0.00 75 1015.9
20260509191108 58 0 0.0 0.0 0.00 0.00 0.00 73 1015.8
20260509185111 60 0 0.0 0.0 0.00 0.00 0.00 70 1015.6
20260509184106 61 0 0.0 0.0 0.00 0.00 0.00 72 1015.5
20260509183109 61 0 0.0 0.0 0.00 0.00 0.00 72 1015.5
20260509182107 62 0 0.0 0.0 0.00 0.00 0.00 68 1015.3
20260509181105 63 0 0.0 0.0 0.00 0.00 0.00 67 1015.2
20260509180106 64 0 0.0 0.0 0.00 0.00 0.00 61 1015.1
20260509175103 66 0 0.0 0.0 0.00 0.00 0.00 50 1014.9
20260509174107 66 0 0.0 0.0 0.00 0.00 0.00 50 1014.8
20260509173106 67 0 0.0 0.0 0.00 0.00 0.00 49 1014.8
20260509172107 67 0 0.0 0.0 0.00 0.00 0.00 49 1015.0
20260509170105 66 0 0.0 0.0 0.00 0.00 0.00 49 1014.8
20260509165101 67 0 0.0 0.0 0.00 0.00 0.00 45 1014.8
20260509164105 68 0 0.0 0.0 0.00 0.00 0.00 44 1014.7
20260509163103 69 0 0.0 0.0 0.00 0.00 0.00 44 1014.7
20260509161102 68 0 0.0 0.0 0.00 0.00 0.00 44 1015.0
20260509160100 69 0 0.0 0.0 0.00 0.00 0.00 42 1014.9
20260509154100 68 0 0.0 0.0 0.00 0.00 0.00 42 1015.0
20260509153059 68 0 0.0 0.0 0.00 0.00 0.00 43 1015.1
20260509152104 68 0 0.0 0.0 0.00 0.00 0.00 44 1015.3
20260509151059 68 0 0.0 0.0 0.00 0.00 0.00 44 1015.5
20260509145059 69 0 0.0 0.0 0.00 0.00 0.00 42 1015.5
20260509144057 68 0 0.0 0.0 0.00 0.00 0.00 44 1015.6
20260509142058 69 0 0.0 0.0 0.00 0.00 0.00 43 1015.6
20260509141058 69 0 0.0 0.0 0.00 0.00 0.00 42 1015.7
20260509135057 67 0 0.0 0.0 0.00 0.00 0.00 44 1016.1
20260509134056 68 0 0.0 0.0 0.00 0.00 0.00 43 1016.0
20260509133100 68 0 0.0 0.0 0.00 0.00 0.00 45 1016.2
20260509132058 68 0 0.0 0.0 0.00 0.00 0.00 45 1016.4
20260509131057 67 0 0.0 0.0 0.00 0.00 0.00 45 1016.5
20260509130056 67 0 0.0 0.0 0.00 0.00 0.00 45 1016.7
20260509124056 67 0 0.0 0.0 0.00 0.00 0.00 46 1016.8
20260509122056 67 0 0.0 0.0 0.00 0.00 0.00 47 1017.0
20260509121057 66 0 0.0 0.0 0.00 0.00 0.00 46 1017.2
20260509120058 66 0 0.0 0.0 0.00 0.00 0.00 46 1017.4
20260509115058 65 0 0.0 0.0 0.00 0.00 0.00 46 1017.4
20260509114057 65 0 0.0 0.0 0.00 0.00 0.00 46 1017.6
20260509113057 65 0 0.0 0.0 0.00 0.00 0.00 47 1017.7
20260509112053 65 0 0.0 0.0 0.00 0.00 0.00 47 1017.7
20260509111058 65 0 0.0 0.0 0.00 0.00 0.00 48 1017.7
20260509110056 64 0 0.0 0.0 0.00 0.00 0.00 48 1017.9
20260509104056 64 0 0.0 0.0 0.00 0.00 0.00 51 1018.1
20260509103057 64 0 0.0 0.0 0.00 0.00 0.00 52 1018.2
20260509102058 63 0 0.0 0.0 0.00 0.00 0.00 52 1018.4
20260509101058 63 0 0.0 0.0 0.00 0.00 0.00 52 1018.4
20260509100056 63 0 0.0 0.0 0.00 0.00 0.00 53 1018.4
20260509095057 62 0 0.0 0.0 0.00 0.00 0.00 55 1018.5
20260509094056 62 0 0.0 0.0 0.00 0.00 0.00 55 1018.6
20260509093058 62 0 0.0 0.0 0.00 0.00 0.00 56 1018.6
20260509092056 61 0 0.0 0.0 0.00 0.00 0.00 57 1018.7
20260509091056 61 0 0.0 0.0 0.00 0.00 0.00 56 1018.8
20260509090057 61 0 0.0 0.0 0.00 0.00 0.00 59 1018.9
20260509085056 60 0 0.0 0.0 0.00 0.00 0.00 60 1018.9
20260509084057 60 0 0.0 0.0 0.00 0.00 0.00 63 1018.9
20260509083057 59 0 0.0 0.0 0.00 0.00 0.00 63 1019.0
20260509082057 58 0 0.0 0.0 0.00 0.00 0.00 65 1019.2
20260509081058 58 0 0.0 0.0 0.00 0.00 0.00 66 1019.3
20260509080057 57 0 0.0 0.0 0.00 0.00 0.00 67 1019.4
20260509075057 56 0 0.0 0.0 0.00 0.00 0.00 68 1019.6
20260509072058 54 0 0.0 0.0 0.00 0.00 0.00 71 1019.7
20260509071057 54 0 0.0 0.0 0.00 0.00 0.00 71 1019.8
20260509070053 53 0 0.0 0.0 0.00 0.00 0.00 72 1019.8
20260509065055 52 0 0.0 0.0 0.00 0.00 0.00 73 1019.8
20260509064055 52 0 0.0 0.0 0.00 0.00 0.00 73 1019.9
20260509063055 51 0 0.0 0.0 0.00 0.00 0.00 74 1019.8
20260509061056 50 0 0.0 0.0 0.00 0.00 0.00 76 1019.8
20260509055052 49 0 0.0 0.0 0.00 0.00 0.00 78 1019.9